Miscellaneous Local Product
Issued by NWS Hastings, NE

Home | Current Version | Previous Version | Graphics & Text | Print | Product List | Glossary On
Versions: 1 2 3 4 5 6 7 8 9 10 11 12 13 14 15 16 17 18 19 20 21 22 23 24 25 26 27 28 29 30 31 32 33 34 35 36 37 38 39 40 41 42 43 44 45 46 47 48 49 50
000
AXUS43 KGID 240402
MISGRI

GID CWA HOURLY WEATHER ROUNDUP
NATIONAL WEATHER SERVICE HASTINGS NE
1000 PM CST SUN NOV 23 2014

NOTE: "FAIR" INDICATES FEW OR NO CLOUDS BELOW 12,000 FEET WITH NO
SIGNIFICANT WEATHER AND/OR OBSTRUCTIONS TO VISIBILITY.

...SOUTH CENTRAL NEBRASKA...

CITY           SKY/WX    TMP DP  RH WIND       PRES   REMARKS
GRAND ISLAND   NOT AVBL
HASTINGS       MOCLDY    37  24  59 NW18G29   29.66S WCI  27
KEARNEY        CLEAR     34  19  55 W12       29.70S WCI  25
ORD            MOCLDY    35  22  58 NW24G35   29.65S WCI  23
YORK           CLEAR     34  25  69 N18G25    29.63R WCI  23
AURORA         CLEAR     35  26  71 NW20G26   29.64S WCI  24
LEXINGTON      CLEAR     32  21  65 NW12      29.72R WCI  23
HOLDREGE       CLEAR     33  19  56 NW12      29.70S WCI  25
HEBRON         MOCLDY    37  27  67 NW10      29.64S WCI  29

...NEBRASKA PANHANDLE...

CITY           SKY/WX    TMP DP  RH WIND       PRES   REMARKS
CHADRON        CLOUDY    31  22  69 W9        29.79S WCI  23
ALLIANCE       MOCLDY    27  18  69 W14       29.78S WCI  16
SCOTTSBLUFF    PTCLDY    29  22  75 W10       29.83F WCI  20
SIDNEY         CLOUDY    29  19  66 W16       29.82S WCI  17

...WESTERN AND NORTH CENTRAL NEBRASKA...

CITY           SKY/WX    TMP DP  RH WIND       PRES   REMARKS
VALENTINE      CLOUDY    33  21  61 NW24G31   29.68F WCI  20
AINSWORTH      CLOUDY    32  21  63 NW23G41   29.67S WCI  19
ONEILL         MOCLDY    31  23  72 NW20G30   29.64S WCI  19
BROKEN BOW     PTCLDY    35  23  61 NW20      29.66F WCI  24
IMPERIAL       CLEAR     33  15  47 NW13      29.79S WCI  24
NORTH PLATTE   CLEAR     28  21  75 W8        29.74S WCI  20
MCCOOK         PTCLDY    33  15  47 W13       29.77R WCI  24

...EASTERN NEBRASKA...

CITY           SKY/WX    TMP DP  RH WIND       PRES   REMARKS
NORFOLK        CLOUDY    32  20  61 NW28G37   29.59S WCI  18
SO SIOUX CITY  CLOUDY    34  22  61 NW24G32   29.54F WCI  21
TEKAMAH        CLOUDY    37  24  59 NW24      29.55S WCI  26
COLUMBUS       CLOUDY    36  21  55 NW28G33   29.62R WCI  23
ALBION         MOCLDY    33  22  63 NW21G33   29.61F WCI  21
OMAHA EPPLEY   CLOUDY    39  25  57 NW31G44   29.55R WCI  27
OFFUTT AFB     CLOUDY    40  27  58 NW24G33   29.53R WCI  30
MILLARD        CLOUDY    41  26  55 NW20G36   29.54R
LINCOLN        MOCLDY    40  25  55 NW18G28   29.59S WCI  31
NEBRASKA CITY  CLOUDY    39  28  63 NW23      29.53R WCI  29
BEATRICE       MOCLDY    39  25  58 NW25G32   29.59S WCI  28
FALLS CITY     CLOUDY    42  31  64 NW23G33   29.51S

...NORTHERN KANSAS...

CITY           SKY/WX    TMP DP  RH WIND       PRES   REMARKS
GOODLAND       CLEAR     28  10  46 W13       29.83R WCI  17
HILL CITY      FAIR      35  15  44 NW8       29.76S WCI  29
NORTON         CLEAR     34  16  47 NW12      29.74S WCI  25
PHILLIPSBURG   MOCLDY    36  21  55 W8        29.74S WCI  29
SMITH CENTER   CLEAR     37  19  48 NW18      29.71S WCI  27
BELOIT         CLEAR     39  25  56 NW16G22   29.68R WCI  30
HAYS           CLEAR     34  16  47 NW10      29.74S WCI  26
RUSSELL        PTCLDY    37  23  56 NW13      29.72R WCI  29
CONCORDIA      CLOUDY    39  27  62 NW15      29.64S WCI  31
SALINA         MOCLDY    42  29  59 NW21G28   29.66R
TOPEKA         CLOUDY    43  34  70 NW12      29.54R



USA.gov is the U.S. government's official web portal to all federal, state and local government web resources and services.